Hourly Data Report for July 25, 2017

ALGONQUIN PARK EAST GATE
ONTARIO

45°32'00.000" N
78°16'00.000" W
397.00 m
6080192
71581
TNK

Download Data

Hourly Data (July 2017)
Hourly Data Report for July 25, 2017
TIME
LST
Temp Definition
°C
Dew Point Definition
°C
Rel Hum Definition
%
Precip. Amount Definition
mm

Wind Dir Definition
10's deg

Wind Spd Definition
km/h
Visibility Definition
km
Stn Press Definition
kPa
Hmdx Definition


Wind Chill Definition


Weather Definition


00:00 12.8 11.2 90 0.0 5 2   97.06     LegendNANA
01:00 12.8 11.1 89 0.0 3 4   97.14     LegendNANA
02:00 12.8 11.0 89 0.0 5 3   97.17     LegendNANA
03:00 12.6 10.8 89 0.0 5 3   97.19     LegendNANA
04:00 10.8 9.4 91 0.0 4 1   97.24     LegendNANA
05:00 9.7 8.6 93 0.0   0   97.34     LegendNANA
06:00 10.6 9.6 93 0.0 8 3   97.41     LegendNANA
07:00 13.9 11.3 85 0.0 8 3   97.49     LegendNANA
08:00 15.7 11.8 78 0.0 3 5   97.57     LegendNANA
09:00 17.0 11.4 69 0.0 10 5   97.58     LegendNANA
10:00 18.5 11.0 61 0.0 8 7   97.57     LegendNANA
11:00 19.4 9.8 54 0.0 11 9   97.60     LegendNANA
12:00 19.2 10.7 58 0.0 7 4   97.61     LegendNANA
13:00 21.1 11.5 54 0.0 7 3   97.60     LegendNANA
14:00 21.6 10.9 51 0.0 5 5   97.57     LegendNANA
15:00 22.1 11.8 52 0.0 9 3   97.59     LegendNANA
16:00 21.6 10.9 50 0.0 10 4   97.57     LegendNANA
17:00 22.0 10.3 47 0.0 10 5   97.55     LegendNANA
18:00 21.7 11.2 51 0.0 12 4   97.59     LegendNANA
19:00 18.2 13.2 73 0.0   0   97.60     LegendNANA
20:00 15.6 12.5 82 0.0   0   97.61     LegendNANA
21:00 14.0 12.1 88 0.0 0 1   97.65     LegendNANA
22:00 12.6 10.8 89 0.0   0   97.62     LegendNANA
23:00 11.4 9.8 90 0.0   0   97.61     LegendNANA

Notes on Data Quality.

Legend

  • E = Estimated
  • M = Missing
  • NA = Not Available*
  • [empty] = Indicates an unobserved value
Date modified: